W5UGD Weather Reports


Display with metric or nautical units.
time (UTC)temp
F
wind
direction
speed
MPH
gust
MPH
rain 1hr
in
rain 24hr
in
rain mn
in
humidity
%
barometer
mb
20260505183503 81 355 2.0 6.0 0.00 0.00 0.00 36 1014.7
20260505183003 81 11 2.0 10.0 0.00 0.00 0.00 37 1014.7
20260505182524 81 72 2.0 10.0 0.00 0.00 0.00 37 1014.7
20260505182024 81 63 1.0 7.0 0.00 0.00 0.00 38 1014.9
20260505181503 80 110 1.0 7.0 0.00 0.00 0.00 34 1015.1
20260505181003 80 128 2.0 11.0 0.00 0.00 0.00 39 1015.2
20260505180524 80 47 2.0 11.0 0.00 0.00 0.00 39 1015.4
20260505180003 80 345 2.0 11.0 0.00 0.00 0.00 38 1015.6
20260505175503 80 21 2.0 11.0 0.00 0.00 0.00 38 1015.7
20260505175003 81 36 2.0 7.0 0.00 0.00 0.00 35 1015.6
20260505174524 80 68 2.0 7.0 0.00 0.00 0.00 35 1015.7
20260505174003 80 80 2.0 7.0 0.00 0.00 0.00 37 1015.7
20260505173503 80 30 3.0 10.0 0.00 0.00 0.00 36 1015.8
20260505173003 80 24 3.0 10.0 0.00 0.00 0.00 38 1015.8
20260505172503 80 64 1.0 8.0 0.00 0.00 0.00 38 1015.7
20260505172003 80 122 1.0 5.0 0.00 0.00 0.00 41 1015.6
20260505171503 79 74 2.0 9.0 0.00 0.00 0.00 38 1015.5
20260505171003 80 29 2.0 9.0 0.00 0.00 0.00 37 1015.5
20260505170503 79 39 2.0 8.0 0.00 0.00 0.00 40 1015.5
20260505170003 79 52 2.0 6.0 0.00 0.00 0.00 39 1015.6
20260505165503 79 55 2.0 6.0 0.00 0.00 0.00 38 1015.7
20260505165003 79 23 3.0 8.0 0.00 0.00 0.00 39 1015.7
20260505164524 79 9 3.0 8.0 0.00 0.00 0.00 40 1015.7
20260505164003 78 65 1.0 6.0 0.00 0.00 0.00 43 1015.9
20260505163503 78 62 1.0 5.0 0.00 0.00 0.00 41 1015.9
20260505163003 78 36 2.0 6.0 0.00 0.00 0.00 45 1015.9
20260505162503 77 38 2.0 6.0 0.00 0.00 0.00 45 1015.9
20260505162003 77 75 2.0 5.0 0.00 0.00 0.00 44 1016.1
20260505161503 78 72 1.0 4.0 0.00 0.00 0.00 48 1016.1
20260505161024 78 56 1.0 5.0 0.00 0.00 0.00 46 1016.1
20260505160524 78 40 2.0 7.0 0.00 0.00 0.00 48 1016.4
20260505153003 76 33 1.0 6.0 0.00 0.00 0.00 52 1016.4
20260505152503 75 13 2.0 6.0 0.00 0.00 0.00 52 1016.5
20260505152003 75 14 2.0 5.0 0.00 0.00 0.00 53 1016.7
20260505151503 75 62 1.0 3.0 0.00 0.00 0.00 54 1016.6
20260505151003 74 133 1.0 3.0 0.00 0.00 0.00 55 1016.6
20260505150503 74 3 1.0 5.0 0.00 0.00 0.00 57 1016.6
20260505140503 66 19 1.0 5.0 0.00 0.00 0.00 71 1016.3
20260505125003 59 14 1.0 8.0 0.00 0.00 0.00 86 1015.8
20260505124503 58 22 1.0 4.0 0.00 0.00 0.00 87 1015.9
20260505124024 58 60 1.0 4.0 0.00 0.00 0.00 88 1015.9
20260505123503 57 47 1.0 5.0 0.00 0.00 0.00 89 1016.1
20260505123003 56 9 1.0 5.0 0.00 0.00 0.00 91 1016.0
20260505122524 55 22 0.0 2.0 0.00 0.00 0.00 93 1016.0
20260505122003 54 99 0.0 4.0 0.00 0.00 0.00 94 1015.8
20260505121503 53 117 0.0 4.0 0.00 0.00 0.00 94 1015.8
20260505121003 52 112 0.0 1.0 0.00 0.00 0.00 94 1015.8
20260505120503 52 112 0.0 1.0 0.00 0.00 0.00 94 1015.7
20260505120004 51 0 0.0 0.0 0.00 0.00 0.00 94 1015.5
20260505115503 51 0 0.0 0.0 0.00 0.00 0.00 94 1015.4
20260505115024 50 0 0.0 0.0 0.00 0.00 0.00 94 1015.4
20260505114503 50 111 0.0 1.0 0.00 0.00 0.00 94 1015.3
20260505114003 50 111 0.0 1.0 0.00 0.00 0.00 94 1015.4
20260505113524 50 0 0.0 0.0 0.00 0.00 0.00 94 1015.5
20260505113003 49 112 0.0 1.0 0.00 0.00 0.00 94 1015.5
20260505112503 49 112 0.0 1.0 0.00 0.00 0.00 94 1015.6
20260505112024 49 0 0.0 0.0 0.00 0.00 0.00 94 1015.6
20260505111503 49 0 0.0 0.0 0.00 0.00 0.00 93 1015.5
20260505111003 49 0 0.0 0.0 0.00 0.00 0.00 93 1015.5
20260505110503 49 0 0.0 0.0 0.00 0.00 0.00 93 1015.4
20260505102003 50 0 0.0 0.0 0.00 0.00 0.00 92 1015.3
20260505101503 50 0 0.0 0.0 0.00 0.00 0.00 92 1015.4
20260505101003 50 0 0.0 0.0 0.00 0.00 0.00 92 1015.3
20260505100524 50 0 0.0 0.0 0.00 0.00 0.00 91 1015.3
20260505100003 50 0 0.0 0.0 0.00 0.00 0.00 91 1015.2
20260505095503 50 112 0.0 1.0 0.00 0.00 0.00 91 1015.3
20260505095024 50 112 0.0 1.0 0.00 0.00 0.00 92 1015.3
20260505094503 50 0 0.0 0.0 0.00 0.00 0.00 91 1015.2
20260505094024 50 0 0.0 0.0 0.00 0.00 0.00 91 1015.1
20260505093503 50 0 0.0 0.0 0.00 0.00 0.00 91 1015.1
20260505093003 50 0 0.0 0.0 0.00 0.00 0.00 91 1015.2
20260505092503 50 112 0.0 1.0 0.00 0.00 0.00 90 1015.1
20260505092003 50 112 0.0 1.0 0.00 0.00 0.00 90 1015.1
20260505091503 50 112 0.0 1.0 0.00 0.00 0.00 90 1015.1
20260505091003 50 112 0.0 1.0 0.00 0.00 0.00 90 1015.0
20260505090503 50 112 0.0 1.0 0.00 0.00 0.00 90 1014.9
20260505090003 50 112 0.0 1.0 0.00 0.00 0.00 90 1014.9
20260505085503 50 112 0.0 1.0 0.00 0.00 0.00 90 1014.9
20260505085003 50 0 0.0 0.0 0.00 0.00 0.00 89 1014.9
20260505084503 50 112 0.0 1.0 0.00 0.00 0.00 89 1014.9
20260505084003 50 111 0.0 1.0 0.00 0.00 0.00 89 1014.8
20260505083524 50 111 0.0 1.0 0.00 0.00 0.00 88 1014.7
20260505083003 51 0 0.0 0.0 0.00 0.00 0.00 88 1014.7
20260505082503 51 0 0.0 0.0 0.00 0.00 0.00 88 1014.8
20260505082003 51 0 0.0 0.0 0.00 0.00 0.00 87 1014.8
20260505081524 51 0 0.0 0.0 0.00 0.00 0.00 87 1014.9
20260505081003 51 0 0.0 0.0 0.00 0.00 0.00 87 1014.8
20260505080503 51 0 0.0 0.0 0.00 0.00 0.00 86 1014.7
20260505080003 52 0 0.0 0.0 0.00 0.00 0.00 86 1014.6
20260505075503 52 0 0.0 0.0 0.00 0.00 0.00 85 1014.6
20260505075003 52 0 0.0 0.0 0.00 0.00 0.00 85 1014.7
20260505074503 52 0 0.0 0.0 0.00 0.00 0.00 85 1014.6
20260505074003 52 0 0.0 0.0 0.00 0.00 0.00 84 1014.6
20260505073503 52 0 0.0 0.0 0.00 0.00 0.00 84 1014.6
20260505073003 52 0 0.0 0.0 0.00 0.00 0.00 84 1014.7
20260505072524 52 0 0.0 0.0 0.00 0.00 0.00 84 1014.7
20260505072003 52 0 0.0 0.0 0.00 0.00 0.00 84 1014.7
20260505071503 53 112 0.0 1.0 0.00 0.00 0.00 84 1014.7
20260505071003 53 112 0.0 1.0 0.00 0.00 0.00 84 1014.7
20260505070503 53 112 0.0 1.0 0.00 0.00 0.00 83 1014.6
20260505070024 53 112 0.0 1.0 0.00 0.00 0.00 82 1014.6
20260505065503 53 112 0.0 1.0 0.00 0.00 0.00 82 1014.6
20260505065003 53 112 0.0 1.0 0.00 0.00 0.00 82 1014.4
20260505064503 53 111 0.0 1.0 0.00 0.00 0.00 82 1014.4
20260505064024 53 110 0.0 1.0 0.00 0.00 0.00 81 1014.4
20260505063503 54 85 0.0 1.0 0.00 0.00 0.00 81 1014.4
20260505063003 54 82 0.0 1.0 0.00 0.00 0.00 81 1014.4
20260505062503 54 80 0.0 1.0 0.00 0.00 0.00 81 1014.4
20260505062003 54 0 0.0 0.0 0.00 0.00 0.00 80 1014.5
20260505061524 54 0 0.0 0.0 0.00 0.00 0.00 79 1014.4
20260505061003 55 69 0.0 1.0 0.00 0.00 0.00 79 1014.4
20260505060503 55 76 0.0 2.0 0.00 0.00 0.00 79 1014.3
20260505060003 55 83 0.0 2.0 0.00 0.00 0.00 78 1014.4
20260505055503 55 84 0.0 2.0 0.00 0.00 0.00 80 1014.5
20260505055024 55 84 0.0 2.0 0.00 0.00 0.00 79 1014.5
20260505054503 55 0 0.0 0.0 0.00 0.00 0.00 79 1014.4
20260505054024 56 0 0.0 0.0 0.00 0.00 0.00 78 1014.4
20260505053524 56 0 0.0 0.0 0.00 0.00 0.00 78 1014.5
20260505053003 56 0 0.0 0.0 0.00 0.00 0.00 76 1014.5
20260505052503 56 0 0.0 0.0 0.00 0.00 0.00 76 1014.6
20260505052003 56 0 0.0 0.0 0.00 0.00 0.00 76 1014.6
20260505051503 56 0 0.0 0.0 0.00 0.00 0.00 76 1014.6
20260505051003 57 0 0.0 0.0 0.00 0.00 0.00 76 1014.6
20260505050503 57 0 0.0 0.0 0.00 0.00 0.00 78 1014.7
20260505041503 58 0 0.0 0.0 0.00 0.00 0.00 76 1014.7
20260505041003 58 0 0.0 0.0 0.00 0.00 0.00 74 1014.8
20260505040503 58 0 0.0 0.0 0.00 0.00 0.00 73 1014.8
20260505040004 58 0 0.0 0.0 0.00 0.00 0.00 73 1014.9
20260505035503 58 0 0.0 0.0 0.00 0.00 0.00 73 1014.8
20260505035003 59 248 0.0 1.0 0.00 0.00 0.00 73 1014.8
20260505034503 59 249 0.0 1.0 0.00 0.00 0.00 72 1014.8
20260505034003 59 257 0.0 1.0 0.00 0.00 0.00 72 1014.7
20260505033524 59 0 0.0 0.0 0.00 0.00 0.00 71 1014.9
20260505033003 59 0 0.0 0.0 0.00 0.00 0.00 71 1014.9
20260505032503 60 0 0.0 0.0 0.00 0.00 0.00 71 1014.9
20260505032003 60 0 0.0 0.0 0.00 0.00 0.00 72 1014.9
20260505031503 60 0 0.0 0.0 0.00 0.00 0.00 73 1014.8
20260505031024 60 0 0.0 0.0 0.00 0.00 0.00 71 1014.8
20260505030503 60 0 0.0 0.0 0.00 0.00 0.00 68 1014.9
20260505030003 60 0 0.0 0.0 0.00 0.00 0.00 69 1014.9
20260505025524 60 0 0.0 0.0 0.00 0.00 0.00 69 1014.9
20260505025004 60 252 0.0 1.0 0.00 0.00 0.00 68 1014.8
20260505024503 60 235 0.0 1.0 0.00 0.00 0.00 68 1014.8
20260505024003 60 93 0.0 1.0 0.00 0.00 0.00 68 1014.7
20260505023503 60 93 0.0 1.0 0.00 0.00 0.00 68 1014.7
20260505023003 60 93 0.0 1.0 0.00 0.00 0.00 69 1014.7
20260505022524 60 0 0.0 0.0 0.00 0.00 0.00 69 1014.7
20260505022024 60 0 0.0 0.0 0.00 0.00 0.00 68 1014.6
20260505021503 60 93 0.0 1.0 0.00 0.00 0.00 69 1014.6
20260505021003 60 93 0.0 1.0 0.00 0.00 0.00 69 1014.6
20260505020503 60 0 0.0 0.0 0.00 0.00 0.00 68 1014.6
20260505020004 60 0 0.0 0.0 0.00 0.00 0.00 67 1014.5
20260505015503 60 0 0.0 0.0 0.00 0.00 0.00 66 1014.5
20260505015003 60 0 0.0 0.0 0.00 0.00 0.00 65 1014.4
20260505014503 61 0 0.0 0.0 0.00 0.00 0.00 64 1014.3
20260505014003 61 0 0.0 0.0 0.00 0.00 0.00 64 1014.3
20260505013503 61 0 0.0 0.0 0.00 0.00 0.00 63 1014.3
20260505013024 62 0 0.0 0.0 0.00 0.00 0.00 62 1014.2
20260505012503 62 0 0.0 0.0 0.00 0.00 0.00 61 1014.1
20260505012003 62 0 0.0 0.0 0.00 0.00 0.00 59 1014.1
20260505011503 62 0 0.0 0.0 0.00 0.00 0.00 59 1014.1
20260505011003 63 0 0.0 0.0 0.00 0.00 0.00 59 1014.1
20260505010503 63 0 0.0 0.0 0.00 0.00 0.00 58 1014.1
20260505010004 64 0 0.0 0.0 0.00 0.00 0.00 57 1014.0
20260505005503 64 0 0.0 0.0 0.00 0.00 0.00 56 1014.0
20260505005004 65 0 0.0 0.0 0.00 0.00 0.00 54 1013.8
20260505004503 65 0 0.0 0.0 0.00 0.00 0.00 54 1013.8
20260505004003 66 93 0.0 1.0 0.00 0.00 0.00 55 1013.8
20260505003503 66 93 0.0 1.0 0.00 0.00 0.00 53 1013.8
20260505003003 66 0 0.0 0.0 0.00 0.00 0.00 51 1013.7
20260505002503 67 0 0.0 0.0 0.00 0.00 0.00 52 1013.7
20260505002003 68 0 0.0 0.0 0.00 0.00 0.00 50 1013.7
20260505001503 68 0 0.0 0.0 0.00 0.00 0.00 49 1013.7
20260505001003 68 0 0.0 0.0 0.00 0.00 0.00 48 1013.7
20260505000503 69 0 0.0 0.0 0.00 0.00 0.00 47 1013.7
20260505000003 70 0 0.0 0.0 0.00 0.00 0.00 48 1013.6
20260504235503 70 94 0.0 2.0 0.00 0.00 0.00 46 1013.6
20260504235003 70 94 0.0 2.0 0.00 0.00 0.00 46 1013.5
20260504234503 71 97 0.0 2.0 0.00 0.00 0.00 45 1013.4
20260504234003 71 106 0.0 2.0 0.00 0.00 0.00 45 1013.4
20260504233503 72 120 0.0 2.0 0.00 0.00 0.00 45 1013.4
20260504233003 72 122 0.0 1.0 0.00 0.00 0.00 43 1013.4
20260504232503 72 122 0.0 1.0 0.00 0.00 0.00 43 1013.3
20260504232003 73 88 0.0 2.0 0.00 0.00 0.00 42 1013.3
20260504231503 73 72 1.0 4.0 0.00 0.00 0.00 41 1013.3
20260504231003 73 75 1.0 4.0 0.00 0.00 0.00 41 1013.2
20260504230503 74 65 1.0 5.0 0.00 0.00 0.00 42 1013.3
20260504230003 74 57 1.0 5.0 0.00 0.00 0.00 40 1013.3
20260504225503 74 54 1.0 4.0 0.00 0.00 0.00 39 1013.2
20260504225003 75 51 1.0 3.0 0.00 0.00 0.00 38 1013.2
20260504224524 75 66 1.0 6.0 0.00 0.00 0.00 38 1013.2
20260504224003 75 40 1.0 7.0 0.00 0.00 0.00 36 1013.2
20260504223503 75 26 2.0 7.0 0.00 0.00 0.00 38 1013.3
20260504223003 75 31 2.0 6.0 0.00 0.00 0.00 36 1013.3
20260504222503 76 39 2.0 6.0 0.00 0.00 0.00 36 1013.3
20260504222003 76 52 1.0 4.0 0.00 0.00 0.00 37 1013.3
20260504221503 76 28 2.0 4.0 0.00 0.00 0.00 36 1013.3
20260504221024 76 49 2.0 5.0 0.00 0.00 0.00 36 1013.3
20260504220503 76 59 2.0 5.0 0.00 0.00 0.00 35 1013.4
20260504220003 76 79 1.0 3.0 0.00 0.00 0.00 36 1013.3
20260504215503 76 58 2.0 8.0 0.00 0.00 0.00 34 1013.3
20260504215003 76 55 2.0 8.0 0.00 0.00 0.00 35 1013.2
20260504214503 76 66 1.0 4.0 0.00 0.00 0.00 33 1013.2
20260504214024 76 48 1.0 6.0 0.00 0.00 0.00 34 1013.2
20260504213503 76 45 1.0 6.0 0.00 0.00 0.00 34 1013.3
20260504213003 76 60 1.0 4.0 0.00 0.00 0.00 33 1013.2
20260504212503 76 77 1.0 4.0 0.00 0.00 0.00 36 1013.2
20260504212003 76 80 1.0 5.0 0.00 0.00 0.00 34 1013.2
20260504211503 77 30 1.0 5.0 0.00 0.00 0.00 32 1013.2
20260504211003 77 54 1.0 6.0 0.00 0.00 0.00 32 1013.2
20260504210503 77 37 2.0 6.0 0.00 0.00 0.00 35 1013.2
20260504210004 77 10 2.0 6.0 0.00 0.00 0.00 33 1013.3
20260504205503 77 65 1.0 4.0 0.00 0.00 0.00 31 1013.3
20260504205003 77 82 1.0 7.0 0.00 0.00 0.00 32 1013.4
20260504204503 77 35 2.0 8.0 0.00 0.00 0.00 31 1013.4
20260504204003 77 28 2.0 8.0 0.00 0.00 0.00 32 1013.5
20260504203503 78 51 1.0 3.0 0.00 0.00 0.00 33 1013.5
20260504203003 78 59 1.0 3.0 0.00 0.00 0.00 32 1013.5
20260504202503 78 66 1.0 3.0 0.00 0.00 0.00 31 1013.5
20260504202003 77 63 1.0 5.0 0.00 0.00 0.00 32 1013.5
20260504201524 77 70 1.0 5.0 0.00 0.00 0.00 32 1013.6
20260504201003 78 81 1.0 7.0 0.00 0.00 0.00 31 1013.7
20260504200503 78 84 2.0 7.0 0.00 0.00 0.00 32 1013.7
20260504200003 78 69 2.0 6.0 0.00 0.00 0.00 33 1013.7
20260504195503 79 42 1.0 5.0 0.00 0.00 0.00 30 1013.8
20260504195003 80 35 1.0 5.0 0.00 0.00 0.00 31 1013.8
20260504194503 80 59 1.0 7.0 0.00 0.00 0.00 28 1013.9
20260504194003 80 74 1.0 7.0 0.00 0.00 0.00 29 1014.1
20260504193503 80 69 1.0 6.0 0.00 0.00 0.00 30 1014.0
20260504193003 80 66 1.0 5.0 0.00 0.00 0.00 30 1014.1
20260504192503 81 53 1.0 3.0 0.00 0.00 0.00 29 1014.2
20260504192024 80 117 1.0 5.0 0.00 0.00 0.00 28 1014.3
20260504191503 80 137 2.0 5.0 0.00 0.00 0.00 31 1014.4
20260504191003 81 106 2.0 4.0 0.00 0.00 0.00 28 1014.6
20260504190503 81 40 1.0 4.0 0.00 0.00 0.00 29 1014.6
20260504190003 81 16 1.0 4.0 0.00 0.00 0.00 30 1014.6
20260504185503 81 24 1.0 4.0 0.00 0.00 0.00 31 1014.7
20260504185003 80 349 1.0 4.0 0.00 0.00 0.00 30 1014.8
20260504184503 80 67 1.0 4.0 0.00 0.00 0.00 29 1014.7
20260504184024 80 144 1.0 3.0 0.00 0.00 0.00 31 1014.9